EHI
0 0 0 0 0 0 0 0 0 0 0 0 0 0 0 0 0 0 2 11 29 54 80 94 96 96 98 99 99 98 93 85 79 74 60 35 13 5 3 2 1 0 0 0
0 0 0 0 0 0 0 0 0 0 0 0 0 0 0 0 0 0 1 9 29 59 85 95 96 95 96 96 95 92 89 84 78 69 49 24 8 3 2 1 0 0 0 0
0 0 0 0 0 0 0 0 0 0 0 0 0 0 0 0 0 0 0 6 26 60 87 95 92 89 89 87 82 78 75 73 66 49 25 9 2 1 1 0 0 0 0 0
0 0 0 0 0 0 0 0 0 0 0 0 0 0 0 0 0 0 0 3 19 52 82 90 84 76 71 65 58 53 51 48 39 22 6 0 0 0 0 0 0 0 0 0
0 0 0 0 0 0 0 0 0 0 0 0 0 0 0 0 0 0 1 2 13 41 71 79 68 54 43 34 28 26 24 21 14 6 1 0 0 0 0 0 0 0 0 0
0 0 0 0 0 0 0 0 0 0 0 0 0 0 0 0 0 0 1 3 12 35 58 58 43 27 18 11 9 9 8 5 3 1 0 0 0 0 0 0 0 0 0 0
0 0 0 0 0 0 0 0 0 0 0 0 0 0 0 0 0 0 0 7 23 42 48 36 18 8 4 2 2 2 1 0 0 0 0 0 0 0 0 0 0 0 0 0
0 0 0 0 0 0 0 0 0 0 0 0 0 0 0 0 0 0 3 19 44 53 39 19 5 0 0 0 0 0 0 0 0 0 0 0 0 0 0 0 0 0 0 0
0 0 0 0 0 0 0 0 0 0 0 0 0 0 0 0 0 0 8 36 64 59 31 9 1 0 0 0 0 0 0 0 0 0 0 0 0 0 0 0 0 0 0 0
0 0 0 0 0 0 0 0 0 0 0 0 0 0 0 0 0 0 14 48 73 57 24 4 0 0 0 0 0 0 0 0 0 0 0 0 0 0 0 0 0 0 0 0
0 0 0 0 0 0 0 0 0 0 0 0 0 0 0 0 0 0 16 51 70 47 16 2 0 0 0 0 0 0 0 0 0 0 0 0 0 0 0 0 0 0 0 0
0 0 0 0 0 0 0 0 0 0 0 0 0 0 0 0 0 1 16 48 59 34 9 1 0 0 0 0 0 0 0 0 0 0 0 0 0 0 0 0 0 0 0 0
0 0 0 0 0 0 0 0 0 0 0 0 0 0 0 0 0 2 19 43 45 22 5 0 0 0 0 0 0 0 0 0 0 0 0 0 0 0 0 0 0 0 0 0
0 0 0 0 0 0 0 0 0 0 0 0 0 0 0 0 0 4 22 38 31 12 2 0 0 0 0 0 0 0 0 0 0 0 0 0 0 0 0 0 0 0 0 0
0 0 0 0 0 0 0 0 0 0 0 0 0 0 0 0 1 7 20 27 18 5 1 0 0 0 0 0 0 0 0 0 0 0 0 0 0 0 0 0 0 0 0 0
0 0 0 0 0 0 0 0 0 0 0 0 0 0 0 0 1 7 15 15 8 2 0 0 0 0 0 0 0 0 0 0 0 0 0 0 0 0 0 0 0 0 0 0
0 0 0 0 0 0 0 0 0 0 0 0 0 0 0 0 1 5 9 7 3 1 0 0 0 0 0 0 0 0 0 0 0 0 0 0 0 0 0 0 0 0 0 0
0 0 0 0 0 0 0 0 0 0 0 0 0 0 0 0 1 3 5 4 1 0 0 0 0 0 0 0 0 0 0 0 0 0 0 0 0 0 0 0 0 0 0 0
0 0 0 0 0 0 0 0 0 0 0 0 0 0 0 0 0 1 1 1 0 0 0 0 0 0 0 0 0 0 0 0 0 0 0 0 0 0 0 0 0 0 0 0
0 0 0 0 0 0 0 0 0 0 0 0 0 0 0 0 0 0 0 0 0 0 0 0 0 0 0 0 0 0 0 0 0 0 0 0 0 0 0 0 0 0 0 0
0 0 0 0 0 0 0 0 0 0 0 0 0 0 0 0 0 0 0 0 0 0 0 0 0 0 0 0 0 0 0 0 0 0 0 0 0 0 0 0 0 0 0 0
0 0 0 0 0 0 0 0 0 0 0 0 0 0 0 0 0 0 0 0 0 0 0 0 0 0 0 0 0 0 0 0 0 0 0 0 0 0 0 0 0 0 0 0
0 0 0 0 0 0 0 0 0 0 0 0 0 0 0 0 0 0 0 0 0 0 0 0 0 0 0 0 0 0 0 0 0 0 0 0 0 0 0 0 0 0 0 0
0 0 0 0 0 0 0 0 0 0 0 0 0 0 0 0 0 0 0 0 0 0 0 0 0 0 0 0 0 0 0 0 0 0 0 0 0 0 0 0 0 0 0 0
0 0 0 0 0 0 0 0 0 0 0 0 0 0 0 0 0 0 0 0 0 0 0 0 0 0 0 0 0 0 0 0 0 0 0 0 0 0 0 0 0 0 0 0
0 0 0 0 0 0 0 0 0 0 0 0 0 0 0 0 0 0 0 0 0 0 0 0 0 0 0 0 0 0 0 0 0 0 0 0 0 0 0 0 0 0 0 0
Wind_Speed
11 12 14 15 16 14 9 11 13 13 5 9 12 12 10 6 9 12 13 13 14 16 13 11 10 10 11 11 11 11 11 11 8 7 7 7 7 6 7 7 8 8 7 7
10 16 15 9 9 12 13 14 15 13 7 9 12 14 12 10 12 12 12 13 14 14 12 11 11 11 11 11 11 11 11 11 10 7 6 6 8 7 7 7 7 7 6 5
17 5 9 11 12 13 14 15 15 14 11 11 12 18 18 12 11 12 13 14 15 15 15 13 12 11 11 12 11 10 10 10 10 11 10 9 8 7 7 6 5 5 5 5
16 13 8 13 15 15 15 14 14 15 15 14 10 14 15 12 12 14 14 14 15 15 15 15 14 13 12 11 10 11 10 11 11 10 10 11 8 7 6 5 5 5 3 3
12 14 15 16 15 14 14 11 12 14 15 16 13 14 15 10 13 15 16 15 14 14 14 14 13 13 12 12 11 11 12 11 11 10 10 9 8 8 7 6 5 3 3 2
15 8 11 14 13 12 11 9 10 13 14 19 17 17 15 11 12 13 12 13 13 12 13 12 12 13 12 12 11 11 12 11 10 9 9 9 10 9 8 5 4 2 1 1
18 15 12 10 11 9 11 11 10 11 13 16 15 14 14 10 9 9 7 11 13 13 13 14 14 13 13 13 12 12 12 11 9 9 8 9 9 8 6 4 3 0 0 0
16 15 19 16 19 15 15 16 13 11 12 11 8 10 10 6 6 6 7 10 14 15 14 15 15 14 14 14 13 12 12 11 10 9 9 8 7 5 5 4 2 1 2 2
9 11 7 11 14 17 18 17 18 17 18 16 13 13 8 10 12 11 10 13 16 15 15 16 16 15 15 14 12 12 12 11 10 10 9 8 7 6 6 5 2 1 1 1
8 10 9 9 10 14 16 13 10 13 15 17 17 17 13 11 11 11 12 14 15 15 15 16 16 15 14 13 12 10 10 10 10 10 8 7 7 6 5 3 3 1 1 2
5 10 11 10 13 16 15 15 13 13 13 15 15 11 5 5 7 8 9 14 16 16 16 16 15 15 14 13 12 11 11 10 9 8 7 7 5 4 3 2 1 1 2 3
2 6 10 10 3 6 10 14 15 14 15 15 15 13 3 2 6 7 7 12 16 16 16 16 16 16 14 13 12 11 10 9 8 8 7 6 4 3 1 0 2 3 4 6
4 5 9 10 9 7 7 6 9 11 12 13 15 11 6 2 3 3 6 11 14 15 16 16 15 15 14 12 11 10 9 8 8 7 6 5 3 1 1 2 4 5 7 8
5 6 8 11 6 3 4 6 6 9 12 13 13 12 4 3 4 2 6 12 14 15 15 16 15 14 12 11 11 10 9 8 7 6 4 3 2 2 3 4 5 7 8 9
5 8 9 11 10 10 11 12 11 12 14 15 15 13 10 8 8 5 6 12 14 14 15 16 15 13 12 11 10 9 8 7 5 4 4 3 2 2 3 5 7 8 9 10
2 7 8 12 12 13 16 16 16 17 16 18 18 17 9 7 6 4 6 11 13 13 13 13 13 12 10 10 9 8 7 5 4 4 4 3 2 3 5 6 7 7 7 8
5 6 9 11 11 11 16 12 13 14 14 14 15 11 12 10 8 5 5 9 11 12 12 12 12 10 9 8 7 7 5 4 4 4 2 2 3 5 6 6 6 7 7 7
7 9 8 10 8 12 0 7 7 8 4 9 10 11 11 10 8 7 2 5 9 12 13 13 12 11 8 7 6 5 5 5 3 2 2 3 4 5 6 6 6 6 6 7
8 10 8 7 10 10 4 6 7 7 2 10 11 11 9 5 2 8 9 7 10 13 14 14 12 11 8 6 6 6 5 3 2 3 4 5 6 6 6 6 6 6 7 7
6 8 9 8 8 7 4 8 7 7 6 10 13 12 9 6 4 5 10 14 16 16 14 13 11 9 7 6 5 5 4 3 4 5 6 6 6 6 6 6 6 6 6 7
8 8 10 9 9 6 7 9 9 8 5 13 13 11 7 5 6 10 13 14 15 15 14 12 10 8 7 6 4 4 4 6 6 6 7 6 6 5 5 5 5 6 6 6
6 6 7 7 9 3 9 8 7 10 14 13 11 7 4 9 12 13 14 15 15 15 13 10 9 8 6 4 4 5 7 6 6 6 6 6 5 5 5 5 5 5 7 6
4 4 4 4 4 5 5 7 9 11 12 10 7 2 10 12 13 14 15 14 13 13 11 9 10 8 5 4 4 7 7 6 6 6 6 5 5 5 5 5 5 5 6 6
4 2 6 7 6 6 8 8 9 10 9 4 4 10 14 15 16 15 13 12 12 12 11 9 9 8 7 7 8 8 7 6 6 6 5 4 5 5 6 6 6 5 6 7
3 4 7 10 9 8 5 7 9 6 6 10 13 14 16 17 16 15 13 13 12 11 9 7 8 9 9 9 9 8 7 6 6 6 5 4 5 6 5 5 6 6 7 7
6 6 7 7 7 8 9 8 4 6 10 13 16 15 15 16 17 16 14 12 11 9 8 8 9 9 10 10 9 8 6 6 5 5 5 4 5 5 5 4 3 2 3 4
Wind_Direction
189 213 217 217 222 250 265 259 250 245 244 264 253 250 241 234 242 240 232 225 212 204 180 165 166 166 163 159 157 155 152 148 151 146 144 134 120 109 96 85 79 76 71 69
195 227 231 228 222 234 238 243 248 249 235 264 265 258 251 240 244 246 243 229 221 195 160 161 169 168 164 156 152 151 153 152 153 137 119 112 109 100 92 88 78 75 73 63
220 233 217 206 207 220 232 244 254 260 262 248 265 258 243 225 235 241 243 236 222 201 181 172 173 168 159 153 152 148 147 145 136 131 123 121 119 123 118 110 98 79 78 73
233 226 195 212 222 227 240 239 255 262 263 260 245 270 250 226 226 231 232 227 220 202 189 179 175 165 153 143 138 134 134 130 130 135 139 145 147 138 130 130 119 116 98 79
219 226 216 224 231 230 250 262 252 254 260 266 250 256 263 234 242 239 225 220 215 200 186 179 171 155 142 136 131 129 128 125 126 126 130 135 133 129 132 133 130 140 119 83
239 220 228 233 235 233 239 242 247 250 253 252 250 254 259 237 239 252 227 207 204 189 171 161 148 139 133 129 127 128 126 122 125 129 132 132 129 131 135 142 142 175 141 102
227 218 214 226 222 201 216 228 233 229 226 244 241 246 261 264 257 265 245 197 186 174 158 149 144 140 136 135 133 130 127 124 126 124 122 123 126 132 131 135 120 338 337 1
218 223 215 217 232 233 219 230 247 264 262 262 221 237 261 254 260 265 244 193 177 171 162 156 150 146 143 140 137 135 132 130 131 127 125 123 129 123 110 99 82 77 347 5
238 235 204 218 227 235 240 236 247 259 268 275 271 267 254 244 242 235 217 187 177 169 162 156 151 149 146 144 143 141 138 138 137 133 130 125 115 101 104 123 155 122 56 328
260 249 221 212 222 227 244 246 240 245 255 262 262 259 257 255 256 236 212 191 176 163 160 157 153 150 148 145 142 140 140 136 136 137 134 125 122 119 126 141 101 58 349 334
244 243 232 213 223 232 215 228 232 247 255 265 269 270 315 293 299 281 226 190 171 163 162 160 154 150 147 145 144 143 141 140 139 131 124 121 123 129 141 146 183 274 306 303
343 266 249 232 231 303 251 238 238 249 256 257 268 276 55 352 302 281 234 177 163 163 164 161 154 150 150 150 149 146 141 140 135 127 128 133 140 136 164 293 306 285 283 287
337 260 246 226 203 206 230 237 256 254 262 264 268 274 111 54 325 279 209 162 156 163 162 157 154 153 154 153 147 140 136 133 133 135 139 137 142 122 322 311 294 287 285 285
292 270 270 274 331 349 267 248 254 257 257 264 260 279 274 342 332 273 184 160 159 165 163 160 157 155 153 148 140 136 132 133 130 131 129 118 79 13 328 304 295 290 290 291
306 266 268 280 289 285 281 277 273 269 276 281 284 286 297 340 326 287 191 167 166 170 170 165 158 151 146 137 131 126 123 120 123 125 112 92 72 359 308 301 302 303 305 305
314 278 272 265 263 271 274 270 269 269 273 275 277 279 315 347 322 276 198 178 175 174 170 160 148 139 134 128 123 119 114 116 124 114 98 82 18 320 318 321 325 332 337 340
260 264 265 266 264 275 265 273 278 277 275 283 286 316 350 333 326 300 225 189 178 168 155 143 135 125 116 112 111 111 114 128 122 108 84 23 335 340 354 1 11 12 3 358
265 260 262 263 255 246 133 46 350 307 330 7 354 349 345 347 356 3 341 180 161 148 134 127 120 112 106 108 110 114 128 127 119 100 37 11 4 18 35 34 27 13 0 351
240 247 252 253 251 260 196 53 359 316 282 34 4 355 353 3 25 46 36 74 109 114 113 112 112 113 115 118 120 122 125 116 100 50 32 31 37 48 42 34 21 7 353 351
207 228 241 237 247 250 67 20 336 274 240 37 2 351 348 328 307 74 75 86 94 98 102 107 110 112 111 109 111 116 111 92 62 50 56 61 58 51 41 28 9 6 354 359
203 210 227 235 242 256 46 350 313 263 348 356 345 342 343 7 52 96 96 94 97 98 102 106 108 106 106 109 112 102 79 64 65 77 79 72 63 52 36 25 15 3 3 7
244 229 225 232 240 232 33 353 346 331 327 324 330 345 55 94 100 101 100 99 99 100 103 108 110 108 106 105 104 89 74 78 87 89 84 71 47 25 30 25 18 14 2 1
249 298 299 277 302 15 348 324 318 313 311 315 325 62 118 114 107 103 101 102 104 109 115 118 117 118 121 116 92 87 87 93 96 91 76 59 46 38 25 19 25 18 10 2
185 228 267 272 272 307 317 321 326 323 318 335 88 115 118 113 109 107 108 112 118 124 129 135 137 131 117 101 88 88 93 96 93 81 67 58 46 50 52 27 27 19 11 6
281 250 259 266 283 294 294 340 341 355 71 94 102 111 115 115 115 118 121 125 128 131 136 138 128 117 107 99 93 93 93 92 84 74 64 56 56 50 51 54 35 21 36 14
249 264 274 285 320 307 315 342 17 96 107 114 116 117 119 120 124 126 125 127 130 131 133 130 123 113 106 102 96 89 82 73 68 72 59 49 47 44 40 45 77 130 11 344